• MPC Preparation (Info)

  • MPEC 2023-J132 : 2023 JT1

    The following Minor Planet Electronic Circular may be linked-to from your own Web pages, but must not otherwise be redistributed electronically.

    A form allowing access to any MPEC is at the bottom of this page.


    Read MPEC 2023-J131 Read MPEC 2023-J133


    M.P.E.C. 2023-J132                                 Issued 2023 May 14, 05:38 UT
    
         The Minor Planet Electronic Circulars contain information on unusual
             minor planets, routine data on comets and natural satellites,
             and occasional editorial announcements.  They are published
        on behalf of Division F of the International Astronomical Union by the
              Minor Planet Center, Smithsonian Astrophysical Observatory,
                              Cambridge, MA 02138, U.S.A.
    			  
                 Prepared using the Tamkin Foundation Computer Network
    
                                  MPC@CFA.HARVARD.EDU
                URL https://www.minorplanetcenter.net/    ISSN 1523-6714
    
                                    2023 JT1                                 
    
    
    Observations:
         K23J01T  C2023 05 10.37645 15 32 14.14 -04 08 14.2          20.7 GVEJ132G96
         K23J01T  C2023 05 10.38085 15 32 14.84 -04 08 13.1          20.9 GVEJ132G96
         K23J01T  C2023 05 10.38524 15 32 15.52 -04 08 12.9          20.9 GVEJ132G96
         K23J01T* C2023 05 13.48718215 41 44.396-04 02 49.04         20.88wXEJ132F51
         K23J01T  C2023 05 13.49985915 41 46.625-04 02 48.06         20.76wXEJ132F51
         K23J01T  C2023 05 13.51255915 41 48.864-04 02 47.13         20.74wXEJ132F51
         K23J01T  C2023 05 13.60261415 42 05.098-04 02 40.12         20.36GVEJ132F51
         K23J01T  C2023 05 13.60506215 42 05.551-04 02 40.00         20.53GVEJ132F51
         K23J01T  C2023 05 13.60587515 42 05.695-04 02 39.90         20.60GVEJ132F51
         K23J01T |C2023 05 14.16180 15 43 59.74 -04 01 25.3          20.6 VuEJ132807
         K23J01T |C2023 05 14.16671 15 44 00.61 -04 01 24.7          20.8 VuEJ132807
         K23J01T |C2023 05 14.17162 15 44 01.54 -04 01 25.2          20.5 VuEJ132807
    
    Observer details:
    807 Cerro Tololo Observatory, La Serena.  Observers T. Linder, R. Holmes, L.
        Horn.  0.61-m f/6.5 Dall-Kirkham Astrograph + CCD.
    F51 Pan-STARRS 1, Haleakala.  Observers J. Bulger, T. Lowe, A. Schultz, I.
        Smith, K. Chambers.  Measurers K. Chambers, S. Chastel, T. de Boer, J.
        Fairlamb, H. Gao, M. Huber, C.-C. Lin, E. Magnier, Y. Ramanjooloo, R.
        Wainscoat, R. Weryk.  1.8-m Ritchey-Chretien + CCD.
    G96 Mt. Lemmon Survey.  Observer G. J. Leonard.  Measurers B. Gray, D. Rankin,
        F. C. Shelly.  1.5-m reflector + 10K CCD.
    
    Orbital elements:
    2023 JT1                                                 Earth MOID = 0.1009 AU
    Epoch 2023 Feb. 25.0 TT = JDT 2460000.5                 Bell                    
    M 331.91240              (2000.0)            P               Q                  
    n   0.25880604     Peri.  143.34047     -0.11079407     +0.99322321             
    a   2.4386704      Node   120.27387     -0.92121528     -0.08937866             
    e   0.5432688      Incl.    2.32959     -0.37294380     -0.07429070             
    P   3.81           H   23.55          G   0.15           U   9                  
    Residuals in seconds of arc
    230510 G96  0.1-  0.2-    230513 F51  0.1-  0.1+    230513 F51  0.1-  0.0
    230510 G96  0.1+  0.3+    230513 F51  0.1-  0.1+    230514 807  0.1+  0.0
    230510 G96  0.0   0.1-    230513 F51  0.0   0.0     230514 807  0.3-  0.4+
    230513 F51  0.1-  0.0     230513 F51  0.0   0.0     230514 807  0.2+  0.4-
    
    Ephemeris:
    2023 JT1                 a,e,i = 2.44, 0.54, 2                   q = 1.1138
    Date    TT    R. A. (2000) Decl.     Delta      r    Elong.  Phase     V
    2023 04 14    14 43 07.1 -06 00 52   0.3299  1.3188   160.9    14.4    22.6
    ...
    2023 04 29    15 05 57.8 -04 49 21   0.2358  1.2368   165.9    11.5    21.6
    ...
    2023 05 07    15 23 12.5 -04 17 07   0.1959  1.1996   165.7    12.0    21.1
    ...
    2023 05 13    15 40 10.9 -04 03 03   0.1703  1.1754   164.8    13.0    20.8
    2023 05 14    15 43 26.3 -04 01 57   0.1664  1.1717   164.6    13.2    20.8
    2023 05 15    15 46 50.0 -04 01 17   0.1626  1.1681   164.4    13.5    20.7
    ...
    2023 05 21    16 10 27.0 -04 08 17   0.1421  1.1488   163.3    14.7    20.4
    ...
    2023 05 29    16 52 05.8 -04 54 40   0.1213  1.1293   161.8    16.3    20.1
    ...
    2023 06 13    18 37 28.0 -08 13 27   0.1062  1.1138   156.7    21.2    20.0
    
    M. P. C. Staff               (C) Copyright 2023 MPC           M.P.E.C. 2023-J132
    


    Read MPEC 2023-J131 Read MPEC 2023-J133


    MPEC number:

    Enter an MPEC number in one of the following forms:

    • 1997-B01 (the full form)
    • J97B01 (the packed version of the full form)
    • B01 (the abbreviated form)